CW1490 Weather Reports


Display with metric or nautical units.
time (UTC)temp
F
wind
direction
speed
MPH
gust
MPH
rain 1hr
in
rain 24hr
in
rain mn
in
humidity
%
barometer
mb
20140424054027 43 3 9.0 19.0 0.00 0.01 0.00 46 1005.6
20140424052526 43 4 11.0 25.0 0.00 0.01 0.00 46 1005.5
20140424051024 43 39 10.0 21.0 0.00 0.01 0.00 49 1005.4
20140424045522 43 27 8.0 23.0 0.00 0.01 0.00 51 1005.6
20140424044020 43 27 10.0 28.0 0.00 0.01 0.00 54 1005.6
20140424042517 44 32 7.0 21.0 0.00 0.01 0.00 56 1005.6
20140424041015 44 55 10.0 17.0 0.00 0.01 0.00 57 1005.6
20140424035512 44 355 14.0 29.0 0.00 0.01 0.01 56 1005.4
20140424034010 45 7 7.0 18.0 0.00 0.01 0.01 57 1005.5
20140424032507 45 355 11.0 17.0 0.00 0.01 0.01 57 1005.2
20140424031006 45 355 8.0 21.0 0.00 0.01 0.01 57 1005.0
20140424025604 45 4 6.0 15.0 0.00 0.01 0.01 58 1005.0
20140424024002 45 15 7.0 26.0 0.00 0.01 0.01 58 1005.0
20140424022502 45 8 12.0 25.0 0.00 0.01 0.01 59 1004.7
20140424020958 45 36 9.0 24.0 0.00 0.01 0.01 59 1004.8
20140424015458 45 56 13.0 20.0 0.00 0.02 0.01 60 1004.9
20140424013955 46 355 9.0 21.0 0.00 0.02 0.01 58 1004.8
20140424012453 46 284 8.0 21.0 0.00 0.02 0.01 59 1004.7
20140424010950 46 7 13.0 22.0 0.00 0.02 0.01 59 1004.5
20140424005448 46 47 11.0 29.0 0.00 0.04 0.01 59 1004.2
20140424003946 46 2 10.0 26.0 0.00 0.04 0.01 60 1004.1
20140424002444 47 52 12.0 22.0 0.00 0.04 0.01 59 1003.8
20140424000940 47 39 11.0 32.0 0.00 0.04 0.01 59 1003.5
20140423235438 47 67 9.0 20.0 0.00 0.04 0.01 59 1003.2
20140423233935 48 55 12.0 31.0 0.00 0.04 0.01 59 1002.9
20140423232432 48 336 4.0 9.0 0.00 0.04 0.01 61 1002.6
20140423230929 49 345 5.0 13.0 0.00 0.04 0.01 58 1002.3
20140423225427 49 288 8.0 21.0 0.00 0.04 0.01 56 1001.9
20140423223925 50 20 13.0 22.0 0.00 0.04 0.01 55 1001.8
20140423222423 50 5 10.0 21.0 0.00 0.04 0.01 53 1001.5
20140423220923 50 26 12.0 24.0 0.00 0.04 0.01 54 1001.4
20140423215421 50 350 5.0 14.0 0.00 0.04 0.01 55 1001.3
20140423213919 50 25 12.0 26.0 0.00 0.04 0.01 56 1001.1
20140423212417 51 28 19.0 32.0 0.00 0.04 0.01 55 1000.8
20140423210917 51 12 14.0 27.0 0.00 0.04 0.01 55 1000.7
20140423205415 51 359 6.0 25.0 0.00 0.04 0.01 54 1000.5
20140423203914 52 41 10.0 23.0 0.00 0.04 0.01 53 1000.3
20140423202416 53 350 13.0 23.0 0.00 0.04 0.01 51 1000.1
20140423200912 53 355 10.0 20.0 0.00 0.04 0.01 52 1000.1
20140423195411 53 33 13.0 26.0 0.00 0.04 0.01 52 1000.0
20140423194009 54 321 8.0 26.0 0.00 0.04 0.01 51 999.9
20140423192409 53 23 11.0 24.0 0.00 0.04 0.01 54 999.8
20140423190908 54 26 11.0 27.0 0.00 0.04 0.01 52 999.4
20140423185407 54 21 13.0 26.0 0.00 0.04 0.01 52 999.5
20140423183905 55 2 13.0 21.0 0.00 0.04 0.01 51 999.6
20140423182404 53 355 13.0 25.0 0.00 0.04 0.01 56 999.6
20140423180858 51 47 9.0 26.0 0.00 0.04 0.01 59 999.6
20140423175356 51 34 10.0 21.0 0.00 0.04 0.01 62 999.5
20140423173855 50 30 10.0 26.0 0.00 0.04 0.01 62 999.6
20140423172355 50 22 8.0 22.0 0.00 0.04 0.01 63 999.6
20140423170854 49 28 10.0 17.0 0.00 0.04 0.01 66 999.6
20140423165352 49 37 10.0 25.0 0.00 0.04 0.01 67 999.5
20140423163850 49 1 8.0 29.0 0.00 0.04 0.01 67 999.5
20140423162348 49 345 2.0 16.0 0.00 0.04 0.01 69 999.2
20140423160847 50 39 7.0 18.0 0.00 0.04 0.01 67 999.3
20140423155345 50 345 10.0 18.0 0.00 0.04 0.01 67 999.1
20140423153843 50 6 4.0 14.0 0.00 0.04 0.01 68 999.0
20140423152341 50 16 10.0 17.0 0.00 0.04 0.01 67 998.8
20140423150840 51 325 6.0 16.0 0.00 0.04 0.01 69 998.5
20140423145339 51 345 10.0 19.0 0.00 0.04 0.01 68 998.5
20140423143838 50 338 13.0 22.0 0.00 0.04 0.01 70 998.4
20140423142336 51 15 12.0 20.0 0.01 0.04 0.01 72 998.1
20140423140835 51 1 8.0 15.0 0.01 0.04 0.01 73 997.7
20140423135334 51 359 7.0 16.0 0.01 0.04 0.01 73 998.0
20140423133833 51 359 10.0 16.0 0.01 0.04 0.01 74 998.3
20140423132632 50 326 12.0 18.0 0.01 0.04 0.01 75 998.3
20140423130829 49 11 3.0 10.0 0.00 0.03 0.00 76 998.4
20140423125328 49 313 4.0 10.0 0.00 0.03 0.00 77 998.7
20140423123826 49 35 2.0 6.0 0.00 0.03 0.00 80 998.5
20140423122324 48 36 5.0 13.0 0.00 0.03 0.00 81 998.4
20140423120823 48 55 6.0 11.0 0.00 0.03 0.00 82 998.5
20140423115320 48 48 3.0 11.0 0.00 0.03 0.00 82 998.5
20140423113817 48 34 6.0 13.0 0.00 0.03 0.00 83 998.4
20140423112315 48 355 1.0 3.0 0.00 0.03 0.00 83 998.4
20140423110814 48 301 1.0 2.0 0.00 0.03 0.00 83 998.4
20140423105312 48 293 0.0 8.0 0.00 0.03 0.00 82 998.3
20140423103809 48 331 2.0 8.0 0.00 0.03 0.00 83 998.2
20140423102309 49 246 3.0 5.0 0.00 0.03 0.00 82 998.1
20140423100806 49 256 4.0 8.0 0.00 0.03 0.00 81 997.9
20140423095305 49 307 0.0 9.0 0.00 0.03 0.00 81 997.9
20140423093803 49 255 5.0 11.0 0.00 0.03 0.00 82 997.7
20140423092301 49 290 3.0 11.0 0.00 0.03 0.00 83 997.1
20140423090800 49 225 1.0 4.0 0.00 0.03 0.00 85 996.9
20140423085300 49 220 3.0 4.0 0.00 0.03 0.00 87 996.9
20140423083759 50 189 2.0 5.0 0.00 0.03 0.00 86 997.0
20140423082257 50 288 3.0 9.0 0.00 0.03 0.00 85 996.9
20140423080756 50 355 3.0 8.0 0.00 0.03 0.00 87 997.2
20140423075255 49 293 3.0 10.0 0.00 0.03 0.00 90 997.1
20140423073753 49 263 2.0 4.0 0.00 0.03 0.00 92 997.1
20140423072252 48 188 4.0 9.0 0.00 0.03 0.00 93 997.0
20140423070751 49 355 1.0 4.0 0.00 0.03 0.00 95 996.5
20140423065250 47 288 3.0 10.0 0.00 0.03 0.00 95 996.7
20140423063748 47 350 0.0 2.0 0.00 0.03 0.00 95 996.8
20140423062246 47 293 1.0 4.0 0.00 0.03 0.00 95 997.0
20140423060943 47 247 1.0 4.0 0.00 0.03 0.00 94 996.9
20140423055241 48 247 0.0 3.0 0.00 0.03 0.00 95 997.2